[[{"header":{"parameterUnit":"m.s-1","parameterCategory":1,"la1":30.2991,"la2":30.254,"lo1":-89.0895,"lo2":-89.0444,"dy":0.0017,"dx":0.0017,"nx":28,"ny":28,"refTime":"2026-02-06T09:00:00:Z","depth":0,"parameterNumber":2,"parameterNumberName":"U-component_of_WINDS"},"data":[0,0,0,0,0,0,0,0,0,0,0,0,0,0,0,0,0,0,0,0,0,0,0,0,0,0,0,0,0,0,0,0,0,0,0,0,0,0,0,0,0,0,0,0,0,0,0,0,0,0,0,0,0,0,0,0,0,0,-1.1564,-1.1564,0,-1.1562,-1.1562,-1.1562,-1.1525,-1.1524,-1.1523,-1.1522,-1.1522,-1.1523,-1.1524,0,0,0,0,0,0,0,0,0,0,0,0,0,-1.1536,-1.1537,-1.1564,-1.1564,-1.1564,-1.1562,-1.1562,-1.1562,-1.1525,-1.1524,-1.1523,-1.1522,-1.1522,-1.1523,-1.1524,0,0,0,0,0,0,0,0,0,0,0,0,0,-1.1543,-1.1537,-1.1564,-1.1545,-1.1543,-1.1562,-1.1562,-1.1562,-1.1525,-1.1524,-1.1522,-1.1521,-1.1522,-1.1523,-1.1525,-1.1562,0,0,-1.1529,-1.1529,0,0,0,0,0,0,0,0,-1.1542,-1.1544,-1.1548,-1.1546,-1.1545,-1.1542,-1.1553,-1.1562,-1.1526,-1.1532,-1.1522,-1.152,-1.153,-1.1531,-1.1534,-1.1562,-1.1562,-1.1529,-1.153,-1.153,-1.1531,0,0,0,0,0,0,0,-1.1542,-1.1544,-1.1563,-1.1548,-1.1546,-1.1537,-1.1536,-1.1554,-1.154,-1.1532,-1.1529,-1.1529,-1.1529,-1.1533,-1.1534,-1.1562,-1.1529,-1.153,-1.1531,-1.1531,-1.162,-1.1622,0,0,0,0,0,0,-1.1544,-1.1543,-1.1563,-1.1563,-1.154,-1.1539,-1.1538,-1.1545,-1.1539,-1.1537,-1.153,-1.1527,-1.1531,-1.1532,-1.1534,-1.1577,-1.153,-1.1531,-1.1532,-1.1619,-1.1621,-1.1622,0,0,0,0,0,0,-1.1543,-1.1546,-1.1564,-1.1553,-1.1554,-1.1541,-1.1548,-1.1545,-1.1549,-1.1538,-1.1536,-1.1537,-1.153,-1.1532,-1.1555,-1.1577,-1.1532,-1.1533,-1.1617,-1.1619,-1.1621,-1.1665,0,0,0,0,0,0,-1.1543,-1.1546,-1.156,-1.1553,-1.1555,-1.1585,-1.155,-1.1546,-1.1551,-1.1547,-1.1543,-1.1541,-1.1529,-1.1553,-1.1556,-1.1578,-1.1534,-1.1615,-1.1618,-1.1621,-1.1661,-1.1668,-1.1674,0,0,0,0,0,-1.1542,-1.1573,-1.1561,-1.1564,-1.1572,-1.1586,-1.1587,-1.1572,-1.1553,-1.1567,-1.156,-1.1542,-1.1573,-1.1556,-1.1559,-1.1581,-1.1614,-1.1617,-1.162,-1.1658,-1.1667,-1.1674,0,0,0,0,0,0,-1.1584,-1.1572,-1.1558,-1.1588,-1.1588,-1.158,-1.1597,-1.1581,-1.1587,-1.1584,-1.1564,-1.1564,-1.159,-1.1588,-1.1569,-1.1617,-1.159,-1.1594,-1.1618,-1.1626,-1.1632,-1.1633,-1.1536,0,0,0,0,0,-1.1596,-1.1608,-1.1597,-1.1624,-1.1625,-1.1611,-1.1617,-1.1604,-1.1604,-1.1605,-1.1599,-1.16,-1.161,-1.1618,-1.1626,-1.166,-1.1659,-1.1677,-1.1683,-1.1688,-1.1693,-1.171,-1.1718,-1.1634,-1.1634,-1.1634,0,0,-1.1623,-1.1617,-1.1626,-1.1633,-1.1631,-1.1645,-1.1612,-1.1627,-1.1637,-1.1607,-1.1629,-1.1625,-1.1625,-1.1653,-1.1666,-1.1652,-1.1716,-1.1693,-1.1697,-1.1699,-1.1715,-1.1723,-1.173,-1.1636,-1.1636,-1.1635,0,0,-1.1678,-1.1675,-1.1697,-1.1696,-1.1694,-1.1684,-1.169,-1.1683,-1.1679,-1.17,-1.1678,-1.1689,-1.1707,-1.1708,-1.1711,-1.1764,-1.1748,-1.1767,-1.1802,-1.1819,-1.1825,-1.1831,-1.1851,-1.1858,-1.1772,-1.1772,-1.1772,0,-1.1711,-1.173,-1.1711,-1.1727,-1.1731,-1.1703,-1.1725,-1.1726,-1.1727,-1.173,-1.1715,-1.1736,-1.1734,-1.1762,-1.1775,-1.1778,-1.1784,-1.1769,-1.1826,-1.1831,-1.1837,-1.1855,-1.1862,-1.1774,-1.1774,-1.1774,-1.1773,0,-1.1771,-1.1784,-1.1802,-1.1803,-1.1808,-1.1828,-1.1812,-1.182,-1.1807,-1.1799,-1.182,-1.1816,-1.1824,-1.1829,-1.1817,-1.1856,-1.1847,-1.1829,-1.1802,-1.1848,-1.1865,-1.1871,-1.1778,-1.1777,-1.1776,-1.1775,0,0,-1.1855,-1.1843,-1.185,-1.185,-1.1845,-1.1855,-1.1873,-1.1879,-1.1886,-1.1888,-1.1903,-1.1918,-1.19,-1.1903,-1.1891,-1.1906,-1.1949,-1.1885,-1.1885,-1.1898,-1.1991,-1.2006,-1.2014,-1.1937,-1.1938,-1.1939,-1.1992,0,-1.1908,-1.1938,-1.1921,-1.1953,-1.1965,-1.1938,-1.1953,-1.1952,-1.1945,-1.1954,-1.1946,-1.1957,-1.1933,-1.1935,-1.1948,-1.1941,-1.1967,-1.1936,-1.1951,-1.1952,-1.1953,-1.2023,-1.2039,-1.2089,-1.1998,-1.1999,-1.2,0,-1.1975,-1.1978,-1.2012,-1.2004,-1.2008,-1.2023,-1.2026,-1.2035,-1.2033,-1.2027,-1.2029,-1.2012,-1.203,-1.2002,-1.2026,-1.2005,-1.201,-1.2007,-1.2008,-1.201,-1.198,-1.2028,-1.2104,-1.2112,-1.201,-1.2009,-1.2009,0,-1.2034,-1.2046,-1.2068,-1.2068,-1.2059,-1.207,-1.2067,-1.2063,-1.2067,-1.2071,-1.2074,-1.2079,-1.2083,-1.2087,-1.2073,-1.2054,-1.2098,-1.2069,-1.2094,-1.2095,-1.2106,-1.2106,-1.2185,-1.2107,-1.2107,-1.2107,-1.2107,0,-1.2096,-1.2118,-1.2094,-1.2107,-1.213,-1.211,-1.2134,-1.2128,-1.2124,-1.2136,-1.2113,-1.2125,-1.2104,-1.2114,-1.2102,-1.2124,-1.2125,-1.2121,-1.2118,-1.2124,-1.2124,-1.2128,-1.2124,-1.2109,-1.2109,-1.2108,-1.2108,0,-1.2166,-1.215,-1.2172,-1.2161,-1.2159,-1.2177,-1.2167,-1.2179,-1.2169,-1.2185,-1.2187,-1.2172,-1.2182,-1.2167,-1.2176,-1.2168,-1.2198,-1.2189,-1.2199,-1.2197,-1.2223,-1.2221,-1.2308,-1.2319,-1.2233,-1.2234,-1.2235,0,-1.2208,-1.2224,-1.2214,-1.2219,-1.2217,-1.2227,-1.2231,-1.2211,-1.2216,-1.2214,-1.2227,-1.2234,-1.224,-1.2257,-1.2248,-1.2254,-1.2246,-1.2276,-1.2247,-1.2252,-1.2247,-1.2247,-1.2249,-1.2282,-1.2284,-1.2284,-1.2285,0,-1.2283,-1.2274,-1.2281,-1.2284,-1.2289,-1.2291,-1.2292,-1.2298,-1.2277,-1.2284,-1.2293,-1.2298,-1.2306,-1.2314,-1.2318,-1.2315,-1.2297,-1.2294,-1.23,-1.2307,-1.2312,-1.231,-1.2216,-1.2292,-1.2292,-1.2291,-1.2291,-1.229,-1.2341,-1.2354,-1.2348,-1.2356,-1.2354,-1.2354,-1.2365,-1.2355,-1.2363,-1.2367,-1.2355,-1.2367,-1.2364,-1.2367,-1.2366,-1.2375,-1.2362,-1.2371,-1.2374,-1.2377,-1.2381,-1.2309,-1.2376,-1.2376,-1.2375,-1.2375,-1.2375,0,-1.2416,-1.2411,-1.2418,-1.2418,-1.2424,-1.2405,-1.2404,-1.2411,-1.2422,-1.2419,-1.2424,-1.2435,-1.2443,-1.2433,-1.2439,-1.2448,-1.244,-1.2451,-1.2451,-1.245,-1.2392,-1.2386,-1.2457,-1.2457,-1.2457,-1.2457,-1.2457,-1.2457,-1.2456,-1.2476,-1.2466,-1.2485,-1.248,-1.2491,-1.2492,-1.2493,-1.2491,-1.2503,-1.2509,-1.2502,-1.2497,-1.2502,-1.2508,-1.2505,-1.2508,-1.2522,-1.2516,-1.2462,-1.2454,-1.2447,-1.2441,-1.2523,-1.2523,-1.2574,-1.2574,-1.2575]},{"header":{"parameterUnit":"m.s-1","parameterCategory":1,"la1":30.2991,"la2":30.254,"lo1":-89.0895,"lo2":-89.0444,"dy":0.0017,"dx":0.0017,"nx":28,"ny":28,"refTime":"2026-02-06T09:00:00:Z","depth":0,"parameterNumber":3,"parameterNumberName":"V-component_of_WINDS"},"data":[0,0,0,0,0,0,0,0,0,0,0,0,0,0,0,0,0,0,0,0,0,0,0,0,0,0,0,0,0,0,0,0,0,0,0,0,0,0,0,0,0,0,0,0,0,0,0,0,0,0,0,0,0,0,0,0,0,0,-4.9978,-4.9978,0,-5.0028,-5.0028,-5.0029,-4.9987,-4.9985,-4.9983,-4.9982,-5.0029,-5.0032,-5.0035,0,0,0,0,0,0,0,0,0,0,0,0,0,-4.9842,-4.9844,-4.9978,-4.9978,-4.9979,-5.0028,-5.0028,-5.0029,-4.9987,-4.9985,-4.9983,-4.9981,-5.0028,-5.0031,-5.0035,0,0,0,0,0,0,0,0,0,0,0,0,0,-4.9897,-4.9845,-4.9977,-4.9964,-4.9963,-5.0027,-5.0028,-5.0029,-4.9988,-4.9985,-4.9982,-4.998,-5.0027,-5.0031,-5.0035,-5.0114,0,0,-5.0048,-5.005,0,0,0,0,0,0,0,0,-4.9894,-4.9902,-4.9965,-4.9965,-4.9964,-4.9999,-4.9998,-5.0057,-4.9988,-4.9978,-4.9982,-4.9979,-5.0021,-5.0025,-5.004,-5.0116,-5.0118,-5.0049,-5.0051,-5.0053,-5.0055,0,0,0,0,0,0,0,-4.989,-4.99,-4.9997,-4.9966,-4.9966,-4.9954,-4.9959,-5.0009,-5.0013,-4.9979,-4.9976,-4.9983,-5.002,-5.0036,-5.0041,-5.0119,-5.0049,-5.0053,-5.0055,-5.0057,-5.0262,-5.0265,0,0,0,0,0,0,-4.9888,-4.9897,-4.9996,-4.9999,-4.9922,-4.9959,-4.9964,-4.999,-5.0013,-5.0014,-4.9985,-4.9981,-5.003,-5.0036,-5.0043,-5.0137,-5.0053,-5.0057,-5.006,-5.026,-5.0263,-5.0266,0,0,0,0,0,0,-4.9886,-4.9898,-4.9994,-4.9947,-4.9958,-4.9964,-4.9993,-4.9992,-5.0009,-5.0017,-5.0017,-5.0001,-5.0028,-5.0036,-5.0097,-5.0138,-5.0059,-5.0063,-5.0256,-5.0261,-5.0265,-5.0326,0,0,0,0,0,0,-4.9882,-4.9897,-4.9928,-4.9948,-4.9961,-5.0049,-4.9996,-4.9995,-5.0017,-5.0012,-5.0033,-5.0033,-5.0027,-5.0091,-5.0101,-5.0142,-5.0067,-5.0253,-5.0258,-5.0263,-5.032,-5.0332,-5.0342,0,0,0,0,0,-4.9877,-4.9942,-4.993,-4.9942,-5.0,-5.0051,-5.0058,-5.0051,-5.002,-5.0051,-5.0056,-5.0033,-5.0132,-5.0097,-5.0109,-5.0152,-5.025,-5.0257,-5.0263,-5.0316,-5.033,-5.0342,0,0,0,0,0,0,-4.9924,-4.9944,-4.9931,-5.0004,-5.0027,-5.0044,-5.0082,-5.0066,-5.0096,-5.009,-5.0077,-5.0082,-5.0147,-5.0155,-5.0116,-5.0229,-5.0186,-5.0195,-5.0222,-5.0235,-5.0246,-5.0243,-5.007,0,0,0,0,0,-4.9944,-4.9985,-4.9999,-5.0063,-5.0075,-5.0077,-5.0099,-5.0091,-5.0113,-5.0122,-5.0131,-5.0153,-5.0188,-5.0212,-5.0245,-5.0321,-5.0325,-5.0356,-5.0367,-5.0376,-5.0384,-5.0425,-5.0439,-5.0287,-5.0287,-5.0287,0,0,-4.9983,-4.9999,-5.0026,-5.0073,-5.0089,-5.0131,-5.0085,-5.0131,-5.0162,-5.0128,-5.0187,-5.0195,-5.0217,-5.0286,-5.0317,-5.0295,-5.0427,-5.0384,-5.0391,-5.0394,-5.0433,-5.0448,-5.046,-5.0292,-5.0291,-5.029,0,0,-5.0078,-5.0094,-5.0149,-5.0167,-5.0193,-5.0194,-5.0207,-5.0227,-5.0232,-5.0291,-5.0267,-5.0302,-5.0364,-5.0381,-5.0398,-5.0499,-5.0479,-5.051,-5.0566,-5.0607,-5.0619,-5.0629,-5.0666,-5.0679,-5.0518,-5.0518,-5.0519,0,-5.0123,-5.0187,-5.0179,-5.0228,-5.0249,-5.0222,-5.0277,-5.0294,-5.0329,-5.0344,-5.0319,-5.0397,-5.041,-5.0483,-5.0508,-5.0522,-5.0537,-5.0508,-5.0618,-5.0628,-5.0638,-5.0673,-5.0687,-5.0522,-5.0522,-5.0521,-5.0521,0,-5.0242,-5.0287,-5.0328,-5.0365,-5.039,-5.0442,-5.0441,-5.0467,-5.0457,-5.0461,-5.0521,-5.0536,-5.0572,-5.0588,-5.0578,-5.066,-5.0646,-5.062,-5.0576,-5.0657,-5.0689,-5.0702,-5.0528,-5.0526,-5.0525,-5.0524,0,0,-5.0368,-5.04,-5.0415,-5.0432,-5.0459,-5.0492,-5.0542,-5.058,-5.0603,-5.0628,-5.0669,-5.0722,-5.0699,-5.0718,-5.071,-5.0745,-5.0825,-5.0714,-5.0715,-5.0735,-5.0917,-5.0937,-5.0952,-5.0811,-5.0814,-5.0816,-5.0915,0,-5.0464,-5.0553,-5.0548,-5.0631,-5.0672,-5.0647,-5.069,-5.0711,-5.0715,-5.075,-5.0753,-5.0792,-5.0758,-5.0769,-5.0803,-5.0808,-5.0861,-5.0801,-5.0849,-5.0851,-5.0846,-5.0969,-5.0991,-5.1083,-5.0927,-5.093,-5.0931,0,-5.0588,-5.0619,-5.0708,-5.0729,-5.0746,-5.0786,-5.082,-5.0853,-5.0875,-5.0876,-5.0898,-5.0884,-5.0933,-5.0888,-5.0955,-5.0914,-5.0934,-5.0939,-5.0943,-5.0947,-5.0897,-5.0978,-5.1113,-5.1127,-5.0951,-5.0949,-5.0948,0,-5.0672,-5.0736,-5.0797,-5.0812,-5.0838,-5.0867,-5.0879,-5.0899,-5.0922,-5.0951,-5.0965,-5.0999,-5.1017,-5.1043,-5.1038,-5.1005,-5.1108,-5.1061,-5.1109,-5.1109,-5.1132,-5.1131,-5.1273,-5.1143,-5.1143,-5.1143,-5.1143,0,-5.078,-5.0835,-5.0835,-5.0873,-5.0934,-5.0926,-5.0986,-5.0994,-5.1013,-5.1051,-5.103,-5.1066,-5.1057,-5.1092,-5.1088,-5.1145,-5.1153,-5.1155,-5.1153,-5.1157,-5.1157,-5.117,-5.1164,-5.1147,-5.1146,-5.1145,-5.1144,0,-5.0885,-5.0887,-5.0952,-5.0973,-5.0979,-5.1023,-5.1039,-5.1074,-5.1077,-5.1126,-5.1137,-5.114,-5.1181,-5.1178,-5.1223,-5.1221,-5.1292,-5.1282,-5.1285,-5.1283,-5.1331,-5.1327,-5.1487,-5.1507,-5.1364,-5.1365,-5.1367,0,-5.0954,-5.0996,-5.1022,-5.1047,-5.1061,-5.1102,-5.1125,-5.1119,-5.1144,-5.1173,-5.1205,-5.1244,-5.1275,-5.134,-5.1347,-5.1381,-5.1372,-5.1426,-5.1377,-5.138,-5.1374,-5.1372,-5.1376,-5.1436,-5.1437,-5.1439,-5.144,0,-5.1078,-5.1077,-5.1113,-5.115,-5.118,-5.1208,-5.1233,-5.1255,-5.1251,-5.128,-5.1322,-5.1346,-5.1393,-5.1432,-5.1465,-5.1476,-5.1457,-5.1455,-5.1468,-5.1473,-5.1473,-5.1475,-5.1312,-5.1451,-5.145,-5.1449,-5.1449,-5.1448,-5.1167,-5.1204,-5.1228,-5.1269,-5.1288,-5.1313,-5.1348,-5.1355,-5.1391,-5.143,-5.1423,-5.1471,-5.1492,-5.1534,-5.1548,-5.1584,-5.1565,-5.1584,-5.1588,-5.1593,-5.1599,-5.1467,-5.159,-5.159,-5.1589,-5.1589,-5.1589,0,-5.1291,-5.1305,-5.1343,-5.1381,-5.1413,-5.1394,-5.1422,-5.1449,-5.1492,-5.1514,-5.1545,-5.1594,-5.1631,-5.1641,-5.1677,-5.1704,-5.1696,-5.1713,-5.1712,-5.1715,-5.1614,-5.16,-5.1719,-5.1719,-5.1719,-5.1719,-5.1719,-5.1719,-5.1359,-5.142,-5.1423,-5.1493,-5.1506,-5.1554,-5.1572,-5.1594,-5.1612,-5.1668,-5.1699,-5.1706,-5.1723,-5.176,-5.1793,-5.1795,-5.1809,-5.183,-5.1828,-5.1735,-5.1722,-5.1709,-5.1696,-5.1833,-5.1833,-5.1926,-5.1927,-5.1927]}]]